Location: Unspecified
(0.0000°N, 0.0000°E)
Time: 00:16:36
(UTC+00:00)

A-11 Canister half - Pass Details

Date: 17 February 2023
Orbit: 1526 x 1682 km, 47.3° (Epoch: 29 March)

Event Time Altitude Azimuth Distance (km) Brightness Sun altitude
Rises 23:10:20 0° 227° (SW) 4,865 11.9 -70.3°
Enters shadow 23:11:46 - 228° (SW) 4,413 11.6 -70.6°
Reaches altitude 10° 23:13:33 10° 230° (SW) 3,857 - -70.9°
Maximum altitude 23:23:11 62° 309° (NW) 1,746 - -72.7°
Drops below altitude 10° 23:32:30 10° 29° (NNE) 3,728 - -74.3°
Sets 23:35:35 0° 32° (NNE) 4,694 - -74.8°
